Weather in Hasan

Russia / Primorsky Krai     42°25′47″N   130°38′35″E
temp.,
°C
wind,
m/s
gust,
m/s
humid.,
%
clouds,
%
prec.,
mm/h
press.,
hPa
HPBL,
m
29 july, thu
thu2901:00+24sw22891 0.0 100318
04:00+23wnw22885 0.0 100261
07:00+23nnw1189100 0.0 100265
10:00+25ese0078100 0.0 1002152
13:00+26sse4478100 0.0 1001289
16:00+27sse5578100 0.0 1000263
19:00+26s5682100 0.0 1000193
22:00+25s4589100 0.0 100079
30 july, fri
fri3001:00+24ssw2291100 0.0 100014
04:00+24wsw0192100 0.0 99911
07:00+24nnw1193100 0.0 100016
10:00+25ene0188100 0.1 1000148
13:00+27se4482100 0.1 1000372
16:00+27sse5684100 0.1 999329
19:00+26sse458573 0.1 999239
22:00+26sse34895 0.1 100035
31 july, sat
sat3101:00+25sse34920 0.1 100047
04:00+25se46913 0.4 99989
07:00+25se58919 0.4 1000173
10:00+25ese68903 0.8 1001288
13:00+25ese688916 0.3 1001473
16:00+26ese57898 0.4 1000450
19:00+26ese58911 0.2 1000317
22:00+25ese6109211 1.2 1001278
1 august, sun
sun101:00+24ese8119587 1.1 1001403
04:00+25ese459419 1.7 100098
07:00+25sse34911 0.1 100148
10:00+25sse588886 1.6 1002266
13:00+26se578121 1.4 1003362
16:00+26ese910879 2.0 1003473
19:00+25ese8118838 0.9 1003404
22:00+25ese10149074 1.9 1005561
2 august, mon
mon201:00+24ese9129162 1.8 1005508
04:00+24ese81291100 3.4 1005550
07:00+24ese91290100 0.9 1006581
10:00+24ese8108859 0.9 1006554
13:00+24ese788797 0.1 1006563
16:00+25ese6887100 0.3 1005526
19:00+24ese5891100 0.3 1005425
22:00+24ese4691100 0.7 1006291